NAKANO
         **** Don't distribute anyone except personal use only ****
           (C) Copyright 2010 Orbit.Astro.Assoc./ComputingSection
write mail from CFAD0::NAKANO on 2010-01-27 08:20:36(JST).
 
    C/2007 G1 (LINEAR)
Epoch 2008 Nov. 30.0 TT = JDT 2454800.5  
T 2008 Nov. 16.31600 TT                                 Nakano
q   2.6470846            (2000.0)            P               Q
z  -0.0006471      Peri.  223.98455     -0.11749455     +0.15314247
 +/-0.0000005      Node    78.99513     -0.37543188     +0.90786090
e   1.0017129      Incl.   88.33073     -0.91937258     -0.39030241
From 1836 observations 2007 Apr. 10-2009 May 16, mean residual 0".53.
   (1/a)org.= +0.000240, (1/a)fut.= +0.000161 (+/-0.000000), Q= 8.
   The comet has passed 2.56 AU from Jupiter on 2008 Apr. 2 UT.

NAKANO
         **** Don't distribute anyone except personal use only ****
                (C) Copyright 2009 OAA/ComputingSection
write mail from CFAD0::NAKANO on 2009-07-29 07:36:14(JST).
 

    C/2007 G1 (LINEAR)
Epoch 2008 Nov. 30.0 TT = JDT 2454800.5  
T 2008 Nov. 16.31521 TT                                 Nakano
q   2.6470944            (2000.0)            P               Q
z  -0.0006498      Peri.  223.98421     -0.11749600     +0.15314170
 +/-0.0000006      Node    78.99511     -0.37543705     +0.90785874
e   1.0017201      Incl.   88.33076     -0.91937028     -0.39030775
From 1769 observations 2007 Apr. 10-2008 Oct. 24, mean residual 0".53.
   (1/a)org.= +0.000238, (1/a)fut.= +0.000158 (+/-0.000001), Q= 8.
   The comet has passed 2.56 AU from Jupiter on 2008 Apr. 2 UT.

NAKANO
         **** Don't distribute anyone except personal use only ****
                (C) Copyright 2009 OAA/ComputingSection
write mail from CFAD0::NAKANO on 2009-01-06 06:55:26(JST).
 

    C/2007 G1 (LINEAR)

Epoch 2008 Nov. 30.0 TT = JDT 2454800.5  

T 2008 Nov. 16.31529 TT                                 Nakano

q   2.6471131            (2000.0)            P               Q

z  -0.0006501      Peri.  223.98382     -0.11749620     +0.15314089

 +/-0.0000007      Node    78.99514     -0.37544348     +0.90785614

e   1.0017209      Incl.   88.33073     -0.91936763     -0.39031409

From 1518 observations 2007 Apr. 10-2008 June 14, mean residual 0".53.

   (1/a)org.= +0.000238, (1/a)fut.= +0.000158 (+/-0.000001), Q= 8.


NAKANO

         **** Don't distribute anyone except personal use only ****

                (C) Copyright 2008 OAA/ComputingSection

write mail from CFAD0::NAKANO on 2008-07-01 07:43:41(JST).

 

    C/2007 G1 (LINEAR)

Epoch 2008 Nov. 30.0 TT = JDT 2454800.5  

T 2008 Nov. 16.31563 TT                                 Nakano

q   2.6471245            (2000.0)            P               Q

z  -0.0006498      Peri.  223.98361     -0.11749573     +0.15314044

 +/-0.0000007      Node    78.99519     -0.37544702     +0.90785476

e   1.0017202      Incl.   88.33068     -0.91936624     -0.39031748

From 1445 observations 2007 Apr. 10-2008 May 20, mean residual 0".53.

   (1/a)org.= +0.000238, (1/a)fut.= +0.000158 (+/-0.000001), Q= 8.

NAKANO

         **** Don't distribute anyone except personal use only ****

                (C) Copyright 2008 OAA/ComputingSection

write mail from CFAD0::NAKANO on 2008-05-30 05:17:26(JST).





    C/2007 G1 (LINEAR)

Epoch 2008 Nov. 30.0 TT = JDT 2454800.5  

T 2008 Nov. 16.31471 TT                                 Nakano

q   2.6471453            (2000.0)            P               Q

z  -0.0006532      Peri.  223.98303     -0.11750230     +0.15313955

 +/-0.0000013      Node    78.99496     -0.37545532     +0.90785088

e   1.0017290      Incl.   88.33088     -0.91936201     -0.39032686

From 1282 observations 2007 Apr. 10-2008 Mar. 21, mean residual 0".52.

   (1/a)org.= +0.000234, (1/a)fut.= +0.000155 (+/-0.000001), Q= 7.

   The comet will pass 2.56 AU from Jupiter on 2008 Apr. 2 UT.



NAKANO

         **** Don't distribute anyone except personal use only ****

                (C) Copyright 2008 OAA/ComputingSection

write mail from CFAD0::NAKANO on 2008-03-30 06:44:05(JST).

 

    C/2007 G1 (LINEAR)

Epoch 2008 Nov. 30.0 TT = JDT 2454800.5  

T 2008 Nov. 16.31210 TT                                 Nakano

q   2.6472041            (2000.0)            P               Q

z  -0.0006631      Peri.  223.98139     -0.11752306     +0.15313720

 +/-0.0000049      Node    78.99423     -0.37547855     +0.90783978

e   1.0017553      Incl.   88.33149     -0.91934987     -0.39035359

From 1158 observations 2007 Apr. 10-Sept. 11, mean residual 0".50.

   (1/a)org.= +0.000225, (1/a)fut.= +0.000145 (+/-0.000005), Q= 6.



NAKANO

         **** Don't distribute anyone except personal use only ****

                (C) Copyright 2007 OAA/ComputingSection

write mail from CFAD0::NAKANO on 2007-09-16 02:42:41(JST).

 





    C/2007 G1 (LINEAR)

Epoch 2008 Nov. 30.0 TT = JDT 2454800.5  

T 2008 Nov. 16.31273 TT                                 Nakano

q   2.6471726            (2000.0)            P               Q

z  -0.0006567      Peri.  223.98224     -0.11750600     +0.15313795

 +/-0.0000096      Node    78.99490     -0.37546750     +0.90784571

e   1.0017385      Incl.   88.33094     -0.91935657     -0.39033951

From 914 observations 2007 Apr. 10-Aug. 9, mean residual 0".51.

   (1/a)org.= +0.000231, (1/a)fut.= +0.000151 (+/-0.000010), Q= 6.

   The comet will pass 2.56 AU from Jupiter on 2008 Apr. 2 UT.



NAKANO

         **** Don't distribute anyone except personal use only ****

                (C) Copyright 2007 OAA/ComputingSection

write mail from CFAD0::NAKANO on 2007-08-13 06:05:09(JST).

 



    C/2007 G1 (LINEAR)

Epoch 2008 Nov. 30.0 TT = JDT 2454800.5  

T 2008 Nov. 16.28740 TT                                 Nakano

q   2.6471193            (2000.0)            P               Q

z  -0.0006832      Peri.  223.98104     -0.11750936     +0.15313537

 +/-0.0000301      Node    78.99489     -0.37548650     +0.90783787

e   1.0018086      Incl.   88.33095     -0.91934838     -0.39035877

From 524 observations 2007 Apr. 10-2007 July 4, mean residual 0".55.

   (1/a)org.= +0.000204, (1/a)fut.= +0.000125 (+/-0.000030), Q= 5.



NAKANO

         **** Don't distribute anyone except personal use only ****

                (C) Copyright 2007 OAA/ComputingSection

write mail from CFAD0::NAKANO on 2007-07-09 03:50:16(JST).

 



    C/2007 G1 (LINEAR)

Epoch 2008 Nov. 30.0 TT = JDT 2454800.5  

T 2008 Nov. 16.13825 TT                                 Nakano

q   2.6468154            (2000.0)            P               Q

z  -0.0007829      Peri.  223.97550     -0.11743822     +0.15312066

 +/-0.0001369      Node    78.99864     -0.37558886     +0.90780294

e   1.0020722      Incl.   88.32763     -0.91931565     -0.39044575

From 368 observations 2007 Apr. 10-May 30, mean residual 0".57.

   (1/a)org.= +0.000105, (1/a)fut.= +0.000025 (+/-0.000137), Q= 5.



NAKANO

         **** Don't distribute anyone except personal use only ****

                (C) Copyright 2007 OAA/ComputingSection

write mail from CFAD0::NAKANO on 2007-06-06 06:36:40(JST).

 



    C/2007 G1 (LINEAR)

T 2008 Nov. 16.58070 TT                                 Nakano

q   2.6460241            (2000.0)            P               Q

                   Peri.  224.05523     -0.11732258     +0.15296010

                   Node    79.00769     -0.37430233     +0.90838811

e   1.0            Incl.   88.34523     -0.91985498     -0.38914554

From 145 observations 2007 Apr. 10-29.



NAKANO

         **** Don't distribute anyone except personal use only ****

                (C) Copyright 2007 OAA/ComputingSection

write mail from CFAD0::NAKANO on 2007-05-04 04:01:44(JST).



◎C/2007 G1の軌道と予報位置



 北見の円館金氏から,4月18日の観測が報告されました.氏の核光度は17.6等

でした.



    C/2007 G1 (LINEAR)

T 2008 Nov. 20.86995 TT                                 Nakano

q   2.6418698            (2000.0)            P               Q

                   Peri.  224.37975     -0.12217651     +0.15367531

                   Node    78.76672     -0.36816399     +0.91043914

e   1.0            Incl.   88.57551     -0.92169853     -0.38403708

From 88 observations 2007 Apr. 10-18.

 

Date/        TT  R.A.(2000) Decl.     Delta   r     Daily motion  Mag.  Moon Age

              h    h  m       。  ,                      ,  / PA 。  m1      。

2007 Apr. 20 18  18 01.90  +34 38.5   5.761  6.100     6.4 / 309  16.2  116  .15

          21 18  18 01.50  +34 42.6   5.746  6.093     6.5 / 308  16.1  117  .24

          22 18  18 01.08  +34 46.6   5.730  6.085     6.6 / 307  16.1  116  .34

          23 18  18 00.65  +34 50.5   5.714  6.078     6.7 / 305  16.1  114  .45

          24 18  18 00.20  +34 54.4   5.699  6.071     6.8 / 304  16.1  111  .55

          25 18  17 59.74  +34 58.2   5.683  6.063     6.9 / 303  16.1  107  .65

          26 18  17 59.26  +35 01.9   5.668  6.056     7.0 / 301  16.1  102  .74

          27 18  17 58.77  +35 05.6   5.653  6.048     7.2 / 300  16.1   97  .82

          28 18  17 58.27  +35 09.1   5.638  6.041     7.3 / 299  16.1   92  .88

          29 18  17 57.75  +35 12.6   5.623  6.033     7.4 / 297  16.1   86  .94

          30 18  17 57.21  +35 16.0   5.608  6.026     7.5 / 296  16.0   81  .97

     May   1 18  17 56.66  +35 19.3   5.593  6.019     7.6 / 295  16.0   76  .99

           2 18  17 56.09  +35 22.6   5.578  6.011     7.7 / 294  16.0   72 1.00

           3 18  17 55.52  +35 25.7   5.564  6.004     7.9 / 293  16.0   68  .98

           4 18  17 54.92  +35 28.7   5.549  5.996     8.0 / 292  16.0   66  .95

           5 18  17 54.32  +35 31.6   5.535  5.989     8.1 / 290  16.0   64  .90

           6 18  17 53.69  +35 34.4   5.521  5.981     8.2 / 289  16.0   64  .83

           7 18  17 53.06  +35 37.1   5.507  5.974     8.3 / 288  16.0   65  .75

           8 18  17 52.41  +35 39.7   5.493  5.967     8.4 / 287  16.0   68  .65

           9 18  17 51.75  +35 42.2   5.479  5.959     8.6 / 286  15.9   72  .55

